Home > Weather > San Jose > Past weeks

Flag for Costa Rica Weather for the Past 2 Weeks in San Jose, Costa Rica

Now
68 °F

Clear.


Feels Like: 68 °F
Forecast: 66 / 80 °F
Wind: 18 mph from East

Location: Juan Santamaria

Current Time: Feb 14, 2016 at 2:51:29 AM

Latest Report: Feb 14, 2016 at 2:00 AM


Visibility: 10 mi

Pressure: 29.90 "Hg (26.12 "Hg at 1161m altitude)

Humidity: 64%

Dew point: 55 °F

Location of San JoseLocation

Historic Weather in San Jose — Graph

°F

San Jose Temperature Yesterday

Maximum temperature yesterday: 82 °F (at 11:00 AM)
Minimum temperature yesterday: 68 °F (at 2:00 AM)
Average temperature yesterday: 74 °F

High & Low Weather Summary for the Past Weeks

 TemperatureHumidityPressure
High90 °F (Feb 3, 1:00 PM)88% (Jan 30, 2:00 AM)30.09 "Hg (Jan 30, 2:00 AM)
Low59 °F (Feb 1, 5:00 AM)29% (Feb 3, 12:00 PM)29.91 "Hg (Feb 13, 3:00 PM)
Average73 °F58%30.01 "Hg
* Reported Jan 30 1:00 AM — Feb 14 1:00 AM, San Jose, Weather by CustomWeather, © 2016

Note: Actual official high and low records may vary slightly from our data, if they occured in-between our weather recording intervals... More about our weather records

Advertising

San Jose Weather History for the Previous 24 Hours

 ConditionsComfort  
Time TempWeatherWind HumidityBarometerVisibility
1:00 AM
Sun, Feb 14
68 °FClear.20 mph64%29.93 "Hg10 mi
12:00 AM70 °FClear.10 mph64%29.98 "Hg10 mi
11:00 PM
Sat, Feb 13
70 °FClear.22 mph60%29.98 "Hg10 mi
10:00 PM72 °FClear.22 mph57%29.98 "Hg10 mi
9:00 PM72 °FPassing clouds.23 mph57%29.98 "HgN/A
8:00 PM72 °FPassing clouds.20 mph61%29.95 "HgN/A
7:00 PM72 °FPassing clouds.17 mph65%29.95 "HgN/A
6:00 PM73 °FPassing clouds.21 mph53%29.92 "HgN/A
5:00 PM73 °FPassing clouds.22 mph61%29.95 "HgN/A
4:00 PM79 °FPassing clouds.21 mph48%29.91 "HgN/A
3:00 PM81 °FPassing clouds.18 mph45%29.91 "HgN/A
2:00 PM81 °FPassing clouds.18 mph45%29.93 "HgN/A
1:00 PM82 °FPassing clouds.21 mph40%29.96 "HgN/A
12:00 PM82 °FPassing clouds.22 mph35%29.99 "HgN/A
11:00 AM82 °FSunny.20 mph35%30.02 "Hg10 mi
10:00 AM81 °FSunny.18 mph37%30.04 "Hg10 mi
9:00 AM77 °FSunny.20 mph47%30.05 "Hg10 mi
8:00 AM73 °FSunny.18 mph53%30.04 "Hg10 mi
7:00 AM70 °FSunny.18 mph60%30.04 "Hg10 mi
6:00 AM68 °FSunny.16 mph64%30.02 "Hg10 mi
5:00 AM68 °FClear.17 mph69%29.99 "Hg10 mi
4:00 AM68 °FPassing clouds.15 mph69%29.98 "HgN/A
3:00 AM68 °FPassing clouds.15 mph69%29.97 "HgN/A
2:00 AM68 °FClear.20 mph69%29.96 "Hg10 mi
Weather by CustomWeather, © 2016

See weather overviewHow to use our weather pages